Location: *
(37.4917°N, 71.5558°E)
Time: 03:31:01
(UTC+00:00)

Cosmos 2082 - Pass Details

Date: 09 April 2020
Orbit: 833 x 855 km, 71.0° (Epoch: 31 May)

Event Time Altitude Azimuth Distance (km) Brightness Sun altitude
Exits shadow 21:47:36 57° 38° (NE) 1,000 4.2 -32.2°
Drops below altitude 10° 21:52:08 10° 25° (NNE) 2,490 6.9 -31.6°
Sets 21:54:36 0° 24° (NNE) 3,431 7.8 -31.2°
